sat.trackr.live / text

‹ back to catalog

STARLINK-5235

NORAD 54185 · 2022-141AE

PAYLOAD ACTIVE UNKNOWN

§ Identity

Operator
Country
US
Launch date
2022-10-28
Launch site
AFWTR
Launch vehicle
Mass (kg)
RCS (m²)

Purposes: comms

External: N2YO · Heavens-Above · Gunter

§ Orbital elements

Epoch: 2026-09-20T07:26:28.728672Z

Period
93.85 min
Inclination
53.1589°
Eccentricity
0.0001158
Mean motion
15.34389097 rev/d
Perigee alt
461.9 km
Apogee alt
463.5 km
Semi-major
6,840.9 km
B*
2.1952e-5
RAAN
194.6937°
Arg perigee
92.6952°
Mean anomaly
267.4183°
Rev number
21,545

§ Raw data

STARLINK-52351 54185U 22141AE  26263.31005473  .00000365  00000+0  21952-4 0  99912 54185  53.1589 194.6937 0001158  92.6952 267.4183 15.34389097215450

JSON: /api/v1/satellites/54185 · /tle

For live sub-satellite position, see the globe view (requires WebGL).

§ Visibility from observer

Set your observer location to see the next 7 days of passes ≥ 10°. The values pass through the URL so the page stays shareable.

No JS? Fill the form by hand. The geolocation button needs JavaScript.